Weather History for Watonga, OK

Change the Weather History Date:

Monday, April 15, 2013

  Actual Average Record
Temperature  
Mean Temperature 57 °F -  
Max Temperature 66 °F 74 °F 95 °F (2006)
Min Temperature 48 °F 46 °F 23 °F (2014)
Degree Days  
Heating Degree Days 8    
Growing Degree Days 7 (Base 50)    
Moisture  
Dew Point 40 °F    
Average Humidity 53    
Maximum Humidity 71    
Minimum Humidity 42    
Precipitation  
Precipitation 0.00 in - - ()
Sea Level Pressure  
Sea Level Pressure 29.76 in    
Wind  
Wind Speed 18 mph (NE)    
Max Wind Speed 26 mph    
Max Gust Speed 33 mph    
Visibility 10 miles    
Events      
Averages and records for this station are not official NWS values.
T = Trace of Precipitation, MM = Missing Value Source: NWS Daily Summary

Daily Weather History Graph

Daily Weather History Graph

Search for Another Location

Airport:

Trip Planner

Search our weather history database for the weather conditions in past years. The results will help you decide how hot, cold, wet, or windy it might be!

Date:

Astronomy

Apr. 15, 2013 Rise Set
Actual Time 7:00 AM CDT 8:07 PM CDT
Civil Twilight 6:34 AM CDT 8:33 PM CDT
Nautical Twilight 6:02 AM CDT 9:05 PM CDT
Astronomical Twilight 5:30 AM CDT 9:37 PM CDT
Moon 10:33 AM CDT (4/15) 12:15 AM CDT (4/15)
Length of Visible Light 13h 59m
Length of Day
13h 07m
Waxing Crescent, 25% of the Moon is Illuminated
Apr 15
Waxing Crescent
Apr 18
First Quarter
Apr 25
Full
May 2
Last Quarter
May 9
New

Hourly Weather History & Observations

Time (CDT) Temp. Dew Point Humidity Pressure Visibility Wind Dir Wind Speed Gust Speed Precip Events Conditions
12:15 AM 61.0 °F 37.4 °F 42% 29.68 in 10.0 mi NNE 23.0 mph 31.1 mph N/A   Overcast
12:35 AM 59.9 °F 38.5 °F 45% 29.68 in 10.0 mi NE 24.2 mph 27.6 mph N/A   Mostly Cloudy
12:55 AM 59.7 °F 37.6 °F 44% 29.68 in 10.0 mi NE 23.0 mph - N/A   Overcast
1:15 AM 59.2 °F 36.3 °F 43% 29.68 in 10.0 mi NE 26.5 mph 31.1 mph N/A   Overcast
1:35 AM 58.3 °F 36.3 °F 44% 29.70 in 10.0 mi NE 21.9 mph 29.9 mph N/A   Mostly Cloudy
1:55 AM 58.1 °F 36.7 °F 45% 29.70 in 10.0 mi NE 24.2 mph 29.9 mph N/A   Overcast
2:15 AM 57.6 °F 35.8 °F 44% 29.69 in 10.0 mi NE 24.2 mph 33.4 mph N/A   Mostly Cloudy
2:35 AM 56.8 °F 35.8 °F 45% 29.69 in 10.0 mi NE 21.9 mph 33.4 mph N/A   Mostly Cloudy
2:55 AM 56.7 °F 36.1 °F 46% 29.70 in 10.0 mi NE 21.9 mph 27.6 mph N/A   Overcast
3:15 AM 56.8 °F 35.6 °F 45% 29.70 in 10.0 mi NE 20.7 mph 28.8 mph N/A   Overcast
3:55 AM 56.3 °F 35.1 °F 45% 29.70 in 10.0 mi NE 19.6 mph 29.9 mph N/A   Overcast
4:15 AM 55.9 °F 34.7 °F 45% 29.71 in 10.0 mi NE 19.6 mph 29.9 mph N/A   Overcast
4:35 AM 55.6 °F 34.5 °F 45% 29.70 in 10.0 mi NE 21.9 mph 28.8 mph N/A   Overcast
4:55 AM 55.4 °F 33.8 °F 44% 29.71 in 10.0 mi NE 21.9 mph 27.6 mph N/A   Mostly Cloudy
5:15 AM 55.2 °F 33.8 °F 44% 29.72 in 10.0 mi NE 20.7 mph 27.6 mph N/A   Mostly Cloudy
5:35 AM 55.0 °F 33.3 °F 44% 29.72 in 10.0 mi NE 20.7 mph 25.3 mph N/A   Overcast
5:55 AM 54.7 °F 33.3 °F 44% 29.72 in 10.0 mi NE 20.7 mph - N/A   Overcast
6:15 AM 54.5 °F 33.1 °F 44% 29.72 in 10.0 mi NE 20.7 mph 25.3 mph N/A   Overcast
6:35 AM 54.0 °F 33.4 °F 46% 29.72 in 10.0 mi ENE 21.9 mph 31.1 mph N/A   Overcast
6:55 AM 54.0 °F 32.4 °F 44% 29.72 in 10.0 mi NE 21.9 mph 29.9 mph N/A   Mostly Cloudy
7:15 AM 53.6 °F 32.9 °F 45% 29.72 in 10.0 mi ENE 20.7 mph 28.8 mph N/A   Overcast
7:35 AM 53.4 °F 33.8 °F 47% 29.73 in 10.0 mi NE 17.3 mph 21.9 mph N/A   Overcast
7:55 AM 53.1 °F 34.2 °F 49% 29.74 in 10.0 mi NE 13.8 mph 24.2 mph N/A   Overcast
8:15 AM 53.2 °F 34.3 °F 49% 29.76 in 10.0 mi NE 12.7 mph - N/A   Overcast
8:35 AM 53.1 °F 34.7 °F 50% 29.77 in 10.0 mi NNE 9.2 mph - N/A   Overcast
8:55 AM 53.1 °F 34.9 °F 50% 29.77 in 10.0 mi NNE 13.8 mph - N/A   Overcast
9:15 AM 53.2 °F 34.9 °F 50% 29.77 in 10.0 mi NNE 15.0 mph 20.7 mph N/A   Overcast
9:35 AM 53.6 °F 35.2 °F 50% 29.77 in 10.0 mi NNE 11.5 mph - N/A   Overcast
9:55 AM 54.0 °F 34.9 °F 49% 29.78 in 10.0 mi NE 13.8 mph 21.9 mph N/A   Overcast
10:15 AM 54.1 °F 35.2 °F 49% 29.78 in 10.0 mi NNE 17.3 mph - N/A   Overcast
10:35 AM 54.1 °F 35.2 °F 49% 29.78 in 10.0 mi NE 16.1 mph 21.9 mph N/A   Overcast
10:55 AM 54.5 °F 35.4 °F 49% 29.78 in 10.0 mi NNE 16.1 mph 24.2 mph N/A   Overcast
11:15 AM 54.5 °F 35.8 °F 49% 29.79 in 10.0 mi NNE 15.0 mph - N/A   Overcast
11:35 AM 55.4 °F 36.1 °F 48% 29.79 in 10.0 mi NE 18.4 mph - N/A   Overcast
11:55 AM 56.1 °F 37.0 °F 49% 29.78 in 10.0 mi NE 17.3 mph - N/A   Overcast
12:15 PM 56.5 °F 38.7 °F 51% 29.78 in 10.0 mi NE 16.1 mph - N/A   Overcast
12:35 PM 58.3 °F 39.9 °F 50% 29.78 in 10.0 mi NE 15.0 mph 24.2 mph N/A   Overcast
12:55 PM 59.5 °F 41.4 °F 51% 29.78 in 10.0 mi NE 12.7 mph - N/A   Overcast
1:15 PM 59.7 °F 42.3 °F 52% 29.79 in 10.0 mi ENE 11.5 mph 17.3 mph N/A   Overcast
1:35 PM 60.6 °F 43.7 °F 54% 29.78 in 10.0 mi NE 9.2 mph - N/A   Overcast
1:55 PM 61.7 °F 44.2 °F 53% 29.78 in 10.0 mi NE 11.5 mph - N/A   Scattered Clouds
2:15 PM 62.1 °F 45.0 °F 53% 29.78 in 10.0 mi NE 11.5 mph - N/A   Clear
2:35 PM 62.6 °F 45.5 °F 54% 29.77 in 10.0 mi NE 8.1 mph 16.1 mph N/A   Clear
2:55 PM 62.8 °F 46.4 °F 55% 29.77 in 10.0 mi ENE 8.1 mph - N/A   Clear
3:15 PM 63.9 °F 47.5 °F 55% 29.76 in 10.0 mi NE 11.5 mph - N/A   Clear
3:35 PM 64.6 °F 47.8 °F 55% 29.76 in 10.0 mi NE 8.1 mph - N/A   Clear
3:55 PM 64.9 °F 48.0 °F 54% 29.76 in 10.0 mi NE 8.1 mph - N/A   Clear
4:15 PM 65.3 °F 48.9 °F 55% 29.75 in 10.0 mi NE 11.5 mph - N/A   Clear
4:35 PM 65.3 °F 49.3 °F 56% 29.75 in 10.0 mi NE 8.1 mph - N/A   Clear
4:55 PM 66.0 °F 50.4 °F 57% 29.75 in 10.0 mi NE 9.2 mph - N/A   Clear
5:15 PM 66.2 °F 50.7 °F 57% 29.75 in 10.0 mi NE 10.4 mph 16.1 mph N/A   Clear
5:35 PM 65.8 °F 50.5 °F 58% 29.75 in 10.0 mi NE 10.4 mph - N/A   Clear
5:55 PM 66.2 °F 51.8 °F 60% 29.74 in 10.0 mi NE 9.2 mph - N/A   Clear
6:15 PM 66.0 °F 51.4 °F 59% 29.75 in 10.0 mi NE 8.1 mph - N/A   Clear
6:35 PM 65.8 °F 51.8 °F 60% 29.74 in 10.0 mi NNE 10.4 mph - N/A   Clear
6:55 PM 65.5 °F 51.6 °F 61% 29.74 in 10.0 mi NNE 10.4 mph - N/A   Clear
7:15 PM 64.8 °F 51.6 °F 62% 29.75 in 10.0 mi NNE 9.2 mph - N/A   Clear
7:35 PM 63.9 °F 51.1 °F 63% 29.75 in 10.0 mi NNE 12.7 mph - N/A   Clear
7:55 PM 60.8 °F 46.4 °F 59% 29.77 in 10.0 mi North 18.4 mph - N/A   Clear
8:15 PM 58.3 °F 44.1 °F 59% 29.77 in 10.0 mi North 17.3 mph - N/A   Clear
8:35 PM 56.3 °F 43.2 °F 61% 29.79 in 10.0 mi North 18.4 mph 23.0 mph N/A   Clear
8:55 PM 54.7 °F 42.3 °F 63% 29.80 in 10.0 mi NNE 20.7 mph 27.6 mph N/A   Clear
9:15 PM 53.8 °F 41.9 °F 64% 29.81 in 10.0 mi NNE 20.7 mph 27.6 mph N/A   Clear
9:35 PM 52.7 °F 42.1 °F 67% 29.83 in 10.0 mi NNE 18.4 mph 32.2 mph N/A   Clear
9:55 PM 51.3 °F 41.9 °F 70% 29.84 in 10.0 mi NNE 17.3 mph - N/A   Clear
10:15 PM 50.4 °F 40.3 °F 68% 29.85 in 10.0 mi NNE 19.6 mph - N/A   Clear
10:55 PM 49.1 °F 39.4 °F 69% 29.87 in 10.0 mi NNE 17.3 mph 23.0 mph N/A   Scattered Clouds
11:15 PM 49.3 °F 39.2 °F 68% 29.87 in 10.0 mi NNE 16.1 mph 24.2 mph N/A   Mostly Cloudy
11:35 PM 48.6 °F 39.2 °F 70% 29.87 in 10.0 mi NE 12.7 mph - N/A   Mostly Cloudy
11:55 PM 48.4 °F 39.2 °F 71% 29.87 in 10.0 mi NE 13.8 mph 18.4 mph N/A   Mostly Cloudy